Location: Doux
(49.5045°N, 4.4321°E)
Time: 20:19:01
(UTC+00:00)

Cosmos 1300 Rocket - Pass Details

Date: 23 May 2024
Orbit: 597 x 624 km, 82.5° (Epoch: 14 June)

Event Time Altitude Azimuth Distance (km) Brightness Sun altitude
Rises 01:10:20 0° 354° (N) 2,877 8.1 -17.0°
Reaches altitude 10° 01:12:38 10° 360° (N) 1,964 7.2 -16.8°
Maximum altitude 01:16:51 48° 75° (ENE) 791 4.3 -16.6°
Enters shadow 01:20:28 13° 149° (SSE) 1,735 5.5 -16.3°
